Regional Weather Roundup
Issued by NWS Grand Forks, ND

Home | Current Version | Previous Version | Graphics & Text | Print | Product List | Glossary On
Versions: 1 2 3 4 5 6 7 8 9 10 11 12 13 14 15 16 17 18 19 20 21 22 23 24 25 26 27 28 29 30 31 32 33 34 35 36 37 38 39 40 41 42 43 44 45 46 47 48 49 50
000
ASUS43 KFGF 031810
RWRFGF
PRAIRIE TO PINES  WEATHER ROUNDUP
NATIONAL WEATHER SERVICE EASTERN NORTH DAKOTA/GRAND FORKS ND
100 PM CDT WED JUN 03 2015

 **SATELLITE DATA USED TO AUGMENT SKY COVER AT AUTOMATED STATIONS**
 *****  WEATHER ACROSS EASTERN NORTH DAKOTA  *****

CITY           SKY/WX    TMP DP  RH WIND       PRES   REMARKS
GRAND FORKS    CLOUDY    57  51  80 N14       29.86R
6HR MIN TEMP:  52; 6HR MAX TEMP:  57; 6HR PCP: TRACE;

GRAND FRKS AFB CLOUDY    56  48  75 N15       29.88R
GRAND FRKS NWS   N/A     55 N/A N/A VRB7        N/A
DEVILS LAKE    CLOUDY    57  43  58 N20       29.93S
6HR MIN TEMP:  48; 6HR MAX TEMP:  57;

FARGO          CLOUDY    58  53  84 NW15      29.84R
WAHPETON ARPT  CLOUDY    57  52  82 NW13      29.84S
$$

 ***** WEATHER ACROSS CENTRAL AND WESTERN NORTH DAKOTA  *****

CITY           SKY/WX    TMP DP  RH WIND       PRES   REMARKS
BISMARCK       PTSUNNY   61  45  55 N17G24    29.98F
6HR MIN TEMP:  50; 6HR MAX TEMP:  61;

MINOT          CLOUDY    60  41  49 N13       30.02S
6HR MIN TEMP:  50; 6HR MAX TEMP:  61;

JAMESTOWN      CLOUDY    54  48  80 N17       29.91R
6HR MIN TEMP:  49; 6HR MAX TEMP:  56; 6HR PCP: TRACE;

MINOT AFB      CLOUDY    59  46  62 NE10      30.02R
GARRISON         N/A     60  44  55 N13       30.01S
WILLISTON      MOSUNNY   64  44  48 VRB3      30.04S
6HR MIN TEMP:  49; 6HR MAX TEMP:  65;

DICKINSON      SUNNY     61  45  55 N8        30.01F
6HR MIN TEMP:  48; 6HR MAX TEMP:  61; 6HR PCP: TRACE;

HETTINGER      MOSUNNY   61  49  64 N9G16     30.02F
6HR MIN TEMP:  50; 6HR MAX TEMP:  62;

$$

 *****  OTHER AIRPORT OBSERVATIONS IN OUR AREA  *****

CITY           SKY/WX    TMP DP  RH WIND       PRES   REMARKS
WALHALLA       FAIR      59  48  67 MISG      29.94R
GRAFTON AIRPOR CLOUDY    55  50  82 N15       29.89S
VALLEY CITY AR CLOUDY    55  55 100 NW17      29.90R
CANDO          CLOUDY    59  45  58 N21       29.96F
CAVALIER APRT  RAIN      57  46  67 N14G20    29.92R
GWINNER        NOT AVBL
SHEYENNE NWR     N/A     60  55  83 N9        29.95S
ROLLA          CLOUDY    54  41  62 N20       30.00S
 ***** THE ABOVE OBSERVATIONS ARE NON NWS ARE NOT QUALITY
       CONTROLLED AND MAY MIS-REPORT RAIN FOR SNOW...
$$

  *****  WEATHER ACROSS NORTHERN MINNESOTA  *****

CITY           SKY/WX    TMP DP  RH WIND       PRES   REMARKS
FLAG ISLAND    PTSUNNY   61  55  82 N15       29.88S
WARROAD        CLOUDY    63  57  82 NE12G18   29.89R
ROSEAU         CLOUDY    61  55  82 NE14      29.88R
HALLOCK        CLOUDY    63  55  77 N6        29.88S
THF RVR FALLS  CLOUDY    64  61  88 NE10      29.84F
6HR MIN TEMP:  59; 6HR MAX TEMP:  66; 6HR PCP:  0.01;

BAUDETTE       CLOUDY    64  59  83 NE8       29.86R
6HR MIN TEMP:  59; 6HR MAX TEMP:  65;

WASKISH        CLOUDY    68  61  77 E6        29.83F
CROOKSTON      CLOUDY    57  57 100 N13       29.84F
STEPHEN NDAWN    N/A     57  57 100 N8          N/A
GREENBUSH NDAW   N/A     61  57  88 NE12        N/A
$$
  *****  WEATHER ACROSS CENTRAL AND WEST MINNESOTA  *****

CITY           SKY/WX    TMP DP  RH WIND       PRES   REMARKS
FOSSTON        CLOUDY    64  63  94 N3        29.82F
BEMIDJI        CLOUDY    62  60  92 NE3       29.82S
PARK RAPIDS    CLOUDY    67  60  78 S9        29.82R
6HR MIN TEMP:  63; 6HR MAX TEMP:  68;

ELBOW LAKE     CLOUDY    60  60  99 NW10      29.84R FOG
6HR MIN TEMP:  60; 6HR MAX TEMP:  65;

WADENA         CLOUDY    64  61  88 S9        29.83R
DETROIT LAKES  DRIZZLE   61  59  94 W9        29.83R
MOORHEAD       CLOUDY    57  54  88 NW12      29.84S
FERGUS FALLS   CLOUDY    57  57 100 NW12      29.85R FOG
MORRIS MN      CLOUDY    63  63 100 NW7       29.84S FOG
STAPLES        CLOUDY    64  61  88 S10       29.84R
$$
  *****  WEATHER ELSEWHERE ACROSS MINNESOTA  *****

CITY           SKY/WX    TMP DP  RH WIND       PRES   REMARKS
DULUTH         CLOUDY    62  55  77 SE8       29.88S
6HR MIN TEMP:  56; 6HR MAX TEMP:  62;

INTRNTL FALLS  CLOUDY    65  58  78 NE9       29.85F
6HR MIN TEMP:  57; 6HR MAX TEMP:  66; 6HR PCP: TRACE;

ELY            CLOUDY    66  55  68 SE5       29.87F
CLOQUET        CLOUDY    59  55  88 E3        29.88R
WHEATON        PTSUNNY   64  59  82 W9        29.86R
BRAINERD       CLOUDY    63  59  87 S9        29.87R
6HR MIN TEMP:  62; 6HR MAX TEMP:  66;

HIBBING        CLOUDY    61  57  87 SE9       29.87S
6HR MIN TEMP:  57; 6HR MAX TEMP:  62;

ALEXANDRIA     CLOUDY    64  61  90 S8        29.86R
6HR MIN TEMP:  62; 6HR MAX TEMP:  66;

SAINT CLOUD    HVY RAIN  62  61  96 SW10      29.87R FOG
6HR MIN TEMP:  61; 6HR MAX TEMP:  66; 6HR PCP:  0.66;

MINNEAPOLIS    TSTM      63  61  93 S5        29.90R FOG
6HR MIN TEMP:  62; 6HR MAX TEMP:  67; 6HR PCP:  0.19;

$$

  *****  WEATHER ACROSS SOUTH DAKOTA  *****

CITY           SKY/WX    TMP DP  RH WIND       PRES   REMARKS
SIOUX FALLS    FAIR      73  65  75 VRB7      29.87S
6HR MIN TEMP:  63; 6HR MAX TEMP:  73; 6HR PCP:  0.04;

BROOKINGS      FAIR      72  63  73 W12G18    29.88R
WATERTOWN      CLOUDY    68  62  81 N8        29.86R
6HR MIN TEMP:  62; 6HR MAX TEMP:  68; 6HR PCP:  0.13;

HURON          MOSUNNY   74  61  63 NW17      29.89R
6HR MIN TEMP:  62; 6HR MAX TEMP:  74; 6HR PCP:  0.07;

SISSETON         N/A     64  60  87 N14       29.85R
ABERDEEN       CLOUDY    64  55  72 N14       29.90R
6HR MIN TEMP:  62; 6HR MAX TEMP:  71;

MITCHELL       MOSUNNY   76  62  62 N8G18     29.89R
PIERRE         PTSUNNY   64  54  69 NW16      29.96R
6HR MIN TEMP:  57; 6HR MAX TEMP:  65;

MOBRIDGE       MOSUNNY   66  49  54 NW14      29.94R
RAPID CITY     CLOUDY    60  52  74 N12       30.03F
6HR MIN TEMP:  54; 6HR MAX TEMP:  60;

$$

  *****  SOME WEATHER IN NEARBY STATES *****

CITY           SKY/WX    TMP DP  RH WIND       PRES   REMARKS
GLASGOW MT     SUNNY     64  47  53 SE13      30.01S
6HR MIN TEMP:  53; 6HR MAX TEMP:  64;

GREAT FALLS MT MOSUNNY   62  40  44 CALM      29.96F
6HR MIN TEMP:  45; 6HR MAX TEMP:  64;

CHEYENNE WY    CLOUDY    63  52  67 S16       30.10S
6HR MIN TEMP:  50; 6HR MAX TEMP:  65;

SCOTTSBLUFF NE SUNNY     73  52  47 S9        30.01F
6HR MIN TEMP:  52; 6HR MAX TEMP:  73;

OMAHA NE       CLOUDY    73  65  75 W8        29.91R
6HR MIN TEMP:  64; 6HR MAX TEMP:  73; 6HR PCP:  0.03;

DES MOINES IA  CLOUDY    71  63  75 S16       29.87S
6HR MIN TEMP:  62; 6HR MAX TEMP:  73; 6HR PCP:  0.08;

DAVENPORT IA   FAIR      74  56  53 S14       29.98F
6HR MIN TEMP:  60; 6HR MAX TEMP:  76;

CHICAGO IL     MOSUNNY   72  54  53 VRB7      30.03F
6HR MIN TEMP:  57; 6HR MAX TEMP:  72;

EAU CLAIRE WI  FAIR      73  56  54 S15G23    29.88S
6HR MIN TEMP:  59; 6HR MAX TEMP:  73;

LA CROSSE WI   FAIR      74  57  55 S13       29.90F
6HR MIN TEMP:  61; 6HR MAX TEMP:  75;

$$

  *****  SOME NATIONAL WEATHER *****

CITY           SKY/WX    TMP DP  RH WIND       PRES   REMARKS
LA GUARDIA NY  PTSUNNY   67  47  48 NE8       30.21F
6HR MIN TEMP:  55; 6HR MAX TEMP:  68;

RALEIGH NC     CLOUDY    67  63  87 NE6       30.08F
6HR MIN TEMP:  63; 6HR MAX TEMP:  67; 6HR PCP: TRACE;

ATLANTA GA     MOSUNNY   79  65  62 E9        29.98F
6HR MIN TEMP:  67; 6HR MAX TEMP:  80;

NEW ORLEANS LA FAIR      85  64  49 NE9       29.94S
6HR MIN TEMP:  77; 6HR MAX TEMP:  86;

OKLAHOMA CITY  FAIR      86  66  51 S21G26    29.89F
6HR MIN TEMP:  68; 6HR MAX TEMP:  86;

ALBUQUERQUE NM MOSUNNY   81  25  12 CALM      30.07F
6HR MIN TEMP:  58; 6HR MAX TEMP:  82;

SALT LAKE CITY MOSUNNY   75  51  43 N10       29.86F
6HR MIN TEMP:  58; 6HR MAX TEMP:  75;




USA.gov is the U.S. government's official web portal to all federal, state and local government web resources and services.